Retour au catalogue

STARLINK-31931

ActifCommunicationsVLEO
NORAD 59864·PAYLOAD·🇺🇸 United States

Lancé May 24, 2024 depuis Cape Canaveral Space Force Station

Loading…

Prochains Passages (prochaines 24 heures)

TLE

FraisSource: CelesTrak SupGP

Époque: Sep 14, 2026, 20:55 UTC

1 59864C 24098G   26257.87201389 -.00007087  00000+0 -25671-3 0  2579
2 59864  43.0004 289.9220 0001315 269.8255 150.6021 15.27579081    15

Suivez STARLINK-31931 en temps réel avec AllMySat

Download on the App Store